FW9555 Weather Reports


Display with metric or nautical units.
time (UTC)temp
F
wind
direction
speed
MPH
gust
MPH
rain 1hr
in
rain 24hr
in
rain mn
in
humidity
%
barometer
mb
20260505234726 77 66 0.0 0.0 0.00 0.00 0.00 43 1016.4
20260505234224 78 270 0.0 2.0 0.00 0.00 0.00 42 1016.3
20260505233720 80 26 0.0 0.0 0.00 0.00 0.00 42 1016.2
20260505233218 80 261 0.0 1.0 0.00 0.00 0.00 41 1016.1
20260505232715 80 265 0.0 2.0 0.00 0.00 0.00 41 1016.3
20260505232212 81 81 0.0 1.0 0.00 0.00 0.00 40 1016.3
20260505231709 84 285 1.0 1.0 0.00 0.00 0.00 38 1016.4
20260505231208 85 106 0.0 0.0 0.00 0.00 0.00 38 1016.5
20260505230706 83 106 0.0 1.0 0.00 0.00 0.00 40 1016.3
20260505230202 84 265 2.0 2.0 0.00 0.00 0.00 39 1016.3
20260505225658 84 261 0.0 1.0 0.00 0.00 0.00 38 1016.4
20260505225155 85 289 0.0 2.0 0.00 0.00 0.00 38 1016.3
20260505224651 82 57 0.0 2.0 0.00 0.00 0.00 38 1016.3
20260505224149 81 127 0.0 2.0 0.00 0.00 0.00 41 1016.2
20260505223646 81 131 0.0 2.0 0.00 0.00 0.00 41 1016.2
20260505223142 80 90 0.0 2.0 0.00 0.00 0.00 42 1016.3
20260505222632 83 270 0.0 2.0 0.00 0.00 0.00 40 1016.4
20260505222129 79 114 0.0 1.0 0.00 0.00 0.00 44 1016.5
20260505221626 80 71 0.0 3.0 0.00 0.00 0.00 42 1016.6
20260505221122 85 262 0.0 3.0 0.00 0.00 0.00 39 1016.5
20260505220620 87 291 0.0 1.0 0.00 0.00 0.00 38 1016.3
20260505220118 85 180 0.0 2.0 0.00 0.00 0.00 43 1016.4
20260505215615 82 14 3.0 4.0 0.00 0.00 0.00 38 1016.4
20260505215113 84 270 0.0 3.0 0.00 0.00 0.00 38 1016.6
20260505214611 83 275 0.0 3.0 0.00 0.00 0.00 39 1016.5
20260505214108 80 90 0.0 2.0 0.00 0.00 0.00 41 1016.7
20260505213605 83 12 3.0 3.0 0.00 0.00 0.00 40 1016.7
20260505213102 87 270 0.0 2.0 0.00 0.00 0.00 40 1016.6
20260505212558 85 0 1.0 3.0 0.00 0.00 0.00 36 1016.5
20260505212056 84 75 3.0 3.0 0.00 0.00 0.00 41 1016.7
20260505211552 82 279 0.0 7.0 0.00 0.00 0.00 40 1016.9
20260505211049 83 97 0.0 5.0 0.00 0.00 0.00 40 1016.7
20260505210546 86 262 0.0 2.0 0.00 0.00 0.00 39 1016.9
20260505210043 83 132 2.0 4.0 0.00 0.00 0.00 39 1016.9
20260505205541 84 263 0.0 3.0 0.00 0.00 0.00 42 1016.9
20260505205038 82 294 0.0 3.0 0.00 0.00 0.00 39 1016.7
20260505204535 83 79 3.0 4.0 0.00 0.00 0.00 37 1016.9
20260505204033 82 90 0.0 5.0 0.00 0.00 0.00 40 1016.9
20260505203529 80 90 2.0 5.0 0.00 0.00 0.00 41 1017.1
20260505203026 81 343 5.0 8.0 0.00 0.00 0.00 41 1017.0
20260505202522 82 240 0.0 5.0 0.00 0.00 0.00 39 1017.1
20260505202018 82 0 0.0 3.0 0.00 0.00 0.00 38 1017.1
20260505201516 83 71 0.0 3.0 0.00 0.00 0.00 40 1017.4
20260505201013 84 275 2.0 2.0 0.00 0.00 0.00 42 1017.2
20260505200511 82 69 0.0 3.0 0.00 0.00 0.00 40 1017.4
20260505200007 84 270 0.0 3.0 0.00 0.00 0.00 40 1017.2
20260505195503 84 270 1.0 2.0 0.00 0.00 0.00 41 1017.3
20260505195001 84 278 1.0 3.0 0.00 0.00 0.00 40 1017.3
20260505194458 85 270 2.0 3.0 0.00 0.00 0.00 40 1017.7
20260505193958 84 203 2.0 2.0 0.00 0.00 0.00 41 1017.6
20260505193456 83 75 1.0 3.0 0.00 0.00 0.00 40 1017.5
20260505192953 83 7 1.0 5.0 0.00 0.00 0.00 42 1017.6
20260505192452 83 71 3.0 6.0 0.00 0.00 0.00 39 1018.0
20260505191949 86 321 0.0 3.0 0.00 0.00 0.00 41 1017.8
20260505191447 86 26 2.0 3.0 0.00 0.00 0.00 40 1018.1
20260505190944 81 90 1.0 6.0 0.00 0.00 0.00 41 1018.1
20260505190439 84 297 0.0 4.0 0.00 0.00 0.00 41 1018.2
20260505185935 82 28 3.0 3.0 0.00 0.00 0.00 40 1018.2
20260505185432 84 289 2.0 3.0 0.00 0.00 0.00 43 1018.3
20260505184928 83 321 6.0 7.0 0.00 0.00 0.00 41 1018.2
20260505184425 82 83 3.0 4.0 0.00 0.00 0.00 42 1018.4
20260505183922 85 0 2.0 5.0 0.00 0.00 0.00 43 1018.3
20260505183419 82 212 0.0 5.0 0.00 0.00 0.00 42 1018.5
20260505182916 83 82 0.0 2.0 0.00 0.00 0.00 40 1018.6
20260505182413 83 270 1.0 2.0 0.00 0.00 0.00 44 1018.7
20260505181909 81 16 0.0 3.0 0.00 0.00 0.00 42 1019.0
20260505181406 82 90 0.0 6.0 0.00 0.00 0.00 45 1018.9
20260505180903 81 90 0.0 2.0 0.00 0.00 0.00 42 1019.0
20260505180359 80 294 2.0 3.0 0.00 0.00 0.00 43 1019.2
20260505175856 82 297 0.0 3.0 0.00 0.00 0.00 46 1019.2
20260505175352 83 99 1.0 4.0 0.00 0.00 0.00 40 1019.1
20260505174849 80 90 0.0 8.0 0.00 0.00 0.00 47 1019.3
20260505174347 80 270 0.0 3.0 0.00 0.00 0.00 45 1019.3
20260505173842 79 261 0.0 6.0 0.00 0.00 0.00 42 1019.0
20260505173339 81 263 0.0 5.0 0.00 0.00 0.00 46 1018.9
20260505172836 81 82 3.0 3.0 0.00 0.00 0.00 41 1019.1
20260505172334 82 270 3.0 3.0 0.00 0.00 0.00 42 1019.0
20260505171833 81 312 2.0 3.0 0.00 0.00 0.00 41 1019.0
20260505171330 82 84 0.0 3.0 0.00 0.00 0.00 41 1019.3
20260505170827 82 277 0.0 2.0 0.00 0.00 0.00 49 1019.1
20260505170324 80 54 1.0 3.0 0.00 0.00 0.00 43 1019.1
20260505165819 80 99 0.0 1.0 0.00 0.00 0.00 47 1019.1
20260505165315 79 315 8.0 8.0 0.00 0.00 0.00 42 1019.1
20260505164811 79 60 0.0 4.0 0.00 0.00 0.00 41 1019.4
20260505164308 78 94 2.0 3.0 0.00 0.00 0.00 46 1019.3
20260505163806 78 63 2.0 5.0 0.00 0.00 0.00 51 1019.6
20260505163304 76 315 3.0 5.0 0.00 0.00 0.00 49 1019.7
20260505162802 78 0 0.0 4.0 0.00 0.00 0.00 49 1019.5
20260505162258 78 291 0.0 3.0 0.00 0.00 0.00 53 1019.6
20260505161755 76 322 2.0 4.0 0.00 0.00 0.00 54 1019.7
20260505161253 77 111 0.0 3.0 0.00 0.00 0.00 48 1019.7
20260505160750 77 60 0.0 1.0 0.00 0.00 0.00 53 1019.7
20260505160248 77 45 2.0 2.0 0.00 0.00 0.00 53 1019.8
20260505153227 77 278 0.0 0.0 0.00 0.00 0.00 58 1020.1
20260505152724 75 90 0.0 2.0 0.00 0.00 0.00 59 1020.0
20260505152220 75 270 0.0 1.0 0.00 0.00 0.00 62 1020.0
20260505151715 74 63 3.0 4.0 0.00 0.00 0.00 59 1019.9
20260505151213 73 96 0.0 2.0 0.00 0.00 0.00 59 1020.0
20260505150709 73 262 1.0 6.0 0.00 0.00 0.00 60 1020.1
20260505150206 73 348 4.0 4.0 0.00 0.00 0.00 65 1019.9
20260505140639 67 97 0.0 3.0 0.00 0.00 0.00 73 1020.0
20260505140136 67 71 0.0 2.0 0.00 0.00 0.00 73 1019.9
20260505124549 59 117 0.0 2.0 0.00 0.00 0.00 85 1019.9
20260505124046 59 294 0.0 2.0 0.00 0.00 0.00 86 1019.9
20260505123542 58 300 0.0 3.0 0.00 0.00 0.00 86 1020.0
20260505123038 57 45 0.0 2.0 0.00 0.00 0.00 88 1019.8
20260505122535 57 82 0.0 2.0 0.00 0.00 0.00 88 1019.8
20260505122032 56 328 2.0 3.0 0.00 0.00 0.00 91 1019.7
20260505121529 55 279 0.0 1.0 0.00 0.00 0.00 93 1019.8
20260505121026 54 345 0.0 0.0 0.00 0.00 0.00 94 1019.8
20260505120522 54 306 0.0 0.0 0.00 0.00 0.00 95 1019.9
20260505120017 53 41 2.0 2.0 0.00 0.00 0.00 96 1019.6
20260505115512 53 169 0.0 1.0 0.00 0.00 0.00 96 1019.6
20260505115011 52 0 0.0 1.0 0.00 0.00 0.00 96 1019.3
20260505114507 51 114 1.0 1.0 0.00 0.00 0.00 96 1019.2
20260505114003 51 151 0.0 0.0 0.00 0.00 0.00 96 1019.4
20260505113500 50 151 0.0 0.0 0.00 0.00 0.00 96 1019.5
20260505112956 50 81 0.0 0.0 0.00 0.00 0.00 96 1019.4
20260505112453 50 81 0.0 0.0 0.00 0.00 0.00 96 1019.5
20260505111950 50 81 0.0 0.0 0.00 0.00 0.00 96 1019.5
20260505111444 49 66 0.0 0.0 0.00 0.00 0.00 95 1019.3
20260505110940 49 66 0.0 1.0 0.00 0.00 0.00 95 1019.3
20260505110438 49 99 0.0 0.0 0.00 0.00 0.00 95 1019.4
20260505101908 51 75 0.0 1.0 0.00 0.00 0.00 92 1019.4
20260505101403 50 60 0.0 0.0 0.00 0.00 0.00 91 1019.2
20260505100859 51 60 0.0 0.0 0.00 0.00 0.00 91 1019.3
20260505100356 51 75 0.0 1.0 0.00 0.00 0.00 90 1019.4
20260505095851 51 66 0.0 1.0 0.00 0.00 0.00 90 1019.2
20260505095349 52 74 0.0 0.0 0.00 0.00 0.00 89 1019.0
20260505094845 52 90 0.0 0.0 0.00 0.00 0.00 88 1019.2
20260505094342 52 35 0.0 0.0 0.00 0.00 0.00 88 1019.1
20260505093838 53 35 0.0 1.0 0.00 0.00 0.00 87 1019.0
20260505093335 53 23 0.0 0.0 0.00 0.00 0.00 86 1018.9
20260505092832 54 66 0.0 0.0 0.00 0.00 0.00 84 1019.1
20260505092331 54 66 0.0 0.0 0.00 0.00 0.00 84 1019.0
20260505091827 55 81 0.0 0.0 0.00 0.00 0.00 83 1018.7
20260505091325 55 74 0.0 1.0 0.00 0.00 0.00 82 1019.0
20260505090823 55 23 0.0 1.0 0.00 0.00 0.00 82 1018.8
20260505090321 55 20 0.0 2.0 0.00 0.00 0.00 83 1018.5
20260505085818 55 74 0.0 0.0 0.00 0.00 0.00 83 1018.5
20260505085316 55 74 0.0 0.0 0.00 0.00 0.00 83 1018.4
20260505084813 55 74 0.0 0.0 0.00 0.00 0.00 81 1018.7
20260505084312 55 90 0.0 0.0 0.00 0.00 0.00 81 1018.4
20260505083808 56 90 0.0 2.0 0.00 0.00 0.00 80 1018.5
20260505083306 56 29 1.0 2.0 0.00 0.00 0.00 80 1018.6
20260505082802 56 66 0.0 1.0 0.00 0.00 0.00 79 1018.4
20260505082259 56 18 1.0 1.0 0.00 0.00 0.00 79 1018.2
20260505081755 56 346 0.0 0.0 0.00 0.00 0.00 78 1018.3
20260505081252 56 14 0.0 1.0 0.00 0.00 0.00 78 1018.1
20260505080749 56 262 1.0 2.0 0.00 0.00 0.00 80 1018.2
20260505080244 56 66 1.0 1.0 0.00 0.00 0.00 78 1018.1
20260505075740 57 66 0.0 2.0 0.00 0.00 0.00 78 1018.2
20260505075238 56 279 0.0 0.0 0.00 0.00 0.00 78 1018.0
20260505074735 56 14 0.0 1.0 0.00 0.00 0.00 78 1018.1
20260505074232 56 0 0.0 0.0 0.00 0.00 0.00 78 1018.3
20260505073730 57 0 0.0 1.0 0.00 0.00 0.00 78 1018.0
20260505073227 57 26 0.0 0.0 0.00 0.00 0.00 76 1018.0
20260505072724 57 81 0.0 0.0 0.00 0.00 0.00 76 1018.1
20260505072220 58 90 1.0 2.0 0.00 0.00 0.00 75 1018.0
20260505071715 58 74 0.0 1.0 0.00 0.00 0.00 75 1018.0
20260505071213 58 81 0.0 0.0 0.00 0.00 0.00 74 1018.0
20260505070710 58 81 0.0 1.0 0.00 0.00 0.00 74 1018.1
20260505070206 58 337 0.0 1.0 0.00 0.00 0.00 74 1017.9
20260505065702 59 166 0.0 2.0 0.00 0.00 0.00 74 1018.0
20260505065159 58 74 0.0 1.0 0.00 0.00 0.00 72 1018.2
20260505064656 58 54 0.0 0.0 0.00 0.00 0.00 73 1017.9
20260505064154 58 157 0.0 1.0 0.00 0.00 0.00 73 1018.1
20260505063651 59 270 0.0 0.0 0.00 0.00 0.00 73 1017.9
20260505063147 59 99 0.0 1.0 0.00 0.00 0.00 72 1017.9
20260505062644 59 63 0.0 1.0 0.00 0.00 0.00 71 1018.1
20260505062141 59 32 0.0 2.0 0.00 0.00 0.00 71 1017.9
20260505061638 59 0 0.0 2.0 0.00 0.00 0.00 71 1017.9
20260505061137 59 114 0.0 2.0 0.00 0.00 0.00 70 1017.9
20260505060633 58 60 0.0 2.0 0.00 0.00 0.00 72 1018.0
20260505060130 58 90 0.0 2.0 0.00 0.00 0.00 72 1018.1
20260505055625 58 66 0.0 2.0 0.00 0.00 0.00 72 1018.0
20260505055122 56 74 0.0 1.0 0.00 0.00 0.00 72 1018.1
20260505054620 56 345 0.0 3.0 0.00 0.00 0.00 71 1018.2
20260505054118 56 23 2.0 2.0 0.00 0.00 0.00 71 1018.1
20260505053615 56 96 0.0 1.0 0.00 0.00 0.00 70 1018.2
20260505053111 56 40 2.0 2.0 0.00 0.00 0.00 71 1018.0
20260505052608 56 279 0.0 0.0 0.00 0.00 0.00 72 1018.2
20260505052106 56 279 0.0 0.0 0.00 0.00 0.00 71 1018.2
20260505051602 55 15 0.0 1.0 0.00 0.00 0.00 71 1018.0
20260505051101 55 15 0.0 1.0 0.00 0.00 0.00 74 1018.2
20260505050558 55 352 0.0 0.0 0.00 0.00 0.00 72 1018.3
20260505041526 57 68 0.0 2.0 0.00 0.00 0.00 70 1018.3
20260505041023 58 32 0.0 0.0 0.00 0.00 0.00 69 1018.1
20260505040521 57 32 0.0 0.0 0.00 0.00 0.00 68 1018.1
20260505040018 58 32 0.0 2.0 0.00 0.00 0.00 68 1018.2
20260505035514 58 66 0.0 0.0 0.00 0.00 0.00 66 1018.3
20260505035011 58 66 0.0 0.0 0.00 0.00 0.00 67 1018.2
20260505034507 58 66 0.0 2.0 0.00 0.00 0.00 67 1018.2
20260505034004 58 0 0.0 1.0 0.00 0.00 0.00 66 1018.4
20260505033501 59 66 1.0 1.0 0.00 0.00 0.00 66 1018.2
20260505032959 59 180 0.0 2.0 0.00 0.00 0.00 66 1018.3
20260505032456 59 294 0.0 1.0 0.00 0.00 0.00 65 1018.1
20260505031952 59 90 0.0 1.0 0.00 0.00 0.00 64 1018.3
20260505031450 58 20 0.0 0.0 0.00 0.00 0.00 66 1018.3
20260505030946 57 15 0.0 1.0 0.00 0.00 0.00 66 1018.1
20260505030442 57 279 0.0 0.0 0.00 0.00 0.00 66 1018.2
20260505025938 57 106 0.0 0.0 0.00 0.00 0.00 67 1018.3
20260505025435 57 106 0.0 0.0 0.00 0.00 0.00 67 1018.2
20260505024934 57 106 0.0 0.0 0.00 0.00 0.00 66 1018.3
20260505024431 57 294 0.0 0.0 0.00 0.00 0.00 65 1018.1
20260505023928 57 15 0.0 0.0 0.00 0.00 0.00 65 1018.2
20260505023425 57 15 0.0 0.0 0.00 0.00 0.00 64 1018.2
20260505022922 57 14 0.0 0.0 0.00 0.00 0.00 65 1018.0
20260505022420 58 14 0.0 1.0 0.00 0.00 0.00 66 1018.2
20260505021917 58 6 0.0 0.0 0.00 0.00 0.00 66 1018.0
20260505021413 58 6 0.0 0.0 0.00 0.00 0.00 64 1017.9
20260505020909 59 6 0.0 0.0 0.00 0.00 0.00 65 1017.8
20260505020404 59 346 0.0 0.0 0.00 0.00 0.00 63 1017.8
20260505015902 59 346 0.0 0.0 0.00 0.00 0.00 62 1017.8
20260505015359 59 346 0.0 0.0 0.00 0.00 0.00 61 1017.7
20260505014856 60 346 0.0 1.0 0.00 0.00 0.00 61 1017.8
20260505014353 60 74 0.0 0.0 0.00 0.00 0.00 61 1017.7
20260505013849 60 74 0.0 0.0 0.00 0.00 0.00 59 1017.5
20260505013347 60 74 0.0 0.0 0.00 0.00 0.00 58 1017.7
20260505012845 61 74 0.0 0.0 0.00 0.00 0.00 58 1017.6
20260505012343 61 74 0.0 0.0 0.00 0.00 0.00 57 1017.5
20260505011838 62 74 0.0 0.0 0.00 0.00 0.00 57 1017.4
20260505011335 62 74 0.0 0.0 0.00 0.00 0.00 57 1017.4
20260505010831 62 270 0.0 0.0 0.00 0.00 0.00 56 1017.4
20260505010327 62 270 0.0 0.0 0.00 0.00 0.00 56 1017.4
20260505005824 63 270 0.0 0.0 0.00 0.00 0.00 57 1017.4
20260505005321 63 270 0.0 0.0 0.00 0.00 0.00 53 1017.3
20260505004818 63 270 0.0 0.0 0.00 0.00 0.00 52 1017.2
20260505004314 64 270 0.0 0.0 0.00 0.00 0.00 51 1017.0
20260505003812 64 270 0.0 1.0 0.00 0.00 0.00 51 1017.3
20260505003309 65 261 0.0 0.0 0.00 0.00 0.00 50 1017.0
20260505002805 65 261 0.0 0.0 0.00 0.00 0.00 49 1017.1
20260505002304 66 261 0.0 0.0 0.00 0.00 0.00 49 1017.0
20260505001800 66 261 0.0 0.0 0.00 0.00 0.00 49 1016.9
20260505001257 67 261 0.0 0.0 0.00 0.00 0.00 48 1017.1
20260505000754 68 261 0.0 0.0 0.00 0.00 0.00 46 1017.2
20260505000252 68 261 0.0 0.0 0.00 0.00 0.00 46 1017.1
20260504235748 69 261 0.0 0.0 0.00 0.00 0.00 45 1016.8
20260504235245 71 261 0.0 0.0 0.00 0.00 0.00 45 1016.7